Location: ??
(35.5052°N, 139.7262°E)
Time: 03:18:14
(UTC+00:00)

Cosmos 2151 - Pass Details

Date: 20 June 2021
Orbit: 581 x 600 km, 82.5° (Epoch: 26 July)

Event Time Altitude Azimuth Distance (km) Brightness Sun altitude
Exits shadow 16:14:04 43° 66° (ENE) 830 3.9 -27.2°
Drops below altitude 10° 16:17:29 10° 20° (NNE) 1,908 6.6 -26.9°
Sets 16:19:44 0° 14° (NNE) 2,810 7.7 -26.7°
